Theta_e
358 357 358 352 328 326 319 323 328 324 324 327 331 332 328 331 327 318 341 346 349 348 352 357 364 362 361 360 360 360 360 360 361 362 362 362 362 362 362 362 362 363 363 363 363 363 363 363 362
356 354 355 341 322 316 318 326 324 326 327 332 335 338 331 323 330 333 337 345 347 344 345 351 363 364 363 363 362 361 360 361 361 361 362 362 362 363 362 363 362 362 365 363 363 363 363 363 361
359 360 343 329 316 318 320 326 325 327 330 336 336 340 334 324 330 333 340 344 344 343 347 355 364 362 362 362 362 362 362 361 362 361 363 363 362 363 363 363 362 363 365 363 362 363 362 361 359
353 350 346 327 313 322 326 328 328 330 334 339 339 331 332 333 332 337 342 345 345 350 350 361 363 362 362 362 361 361 362 361 360 363 363 362 363 363 363 363 363 361 360 361 360 361 362 359 356
352 347 327 319 322 328 331 331 331 331 334 335 337 330 325 334 337 342 344 348 349 351 355 358 365 361 361 361 362 361 361 361 361 362 362 362 363 363 362 362 361 361 359 362 362 363 362 361 358
342 341 323 319 324 329 332 336 334 331 333 334 329 325 327 335 338 342 344 348 350 349 354 354 363 363 362 361 361 361 360 362 361 360 360 361 361 362 363 362 362 361 361 362 361 361 361 361 358
338 330 321 323 325 327 331 338 333 332 333 333 338 327 330 331 340 343 344 346 350 352 350 352 356 361 362 360 361 362 361 361 362 360 359 359 360 361 362 362 361 362 361 360 358 358 359 359 359
339 330 323 324 322 326 333 335 338 333 333 341 340 328 325 332 340 343 344 350 349 349 351 351 358 357 358 356 361 361 361 361 363 359 360 361 360 361 361 362 363 361 359 358 358 357 357 358 359
341 326 319 323 324 328 335 333 339 341 336 337 339 334 333 336 341 342 344 345 346 349 350 353 356 356 356 355 358 361 362 362 363 359 360 360 356 356 358 358 358 361 360 358 357 356 357 360 361
329 322 322 330 331 330 335 333 335 334 333 333 331 334 335 336 340 341 338 340 340 344 349 351 353 353 354 352 359 361 358 360 359 359 356 355 355 352 352 355 357 356 360 359 358 357 357 360 355
328 323 330 331 333 335 332 333 335 332 329 328 327 331 334 336 338 339 339 340 341 344 348 350 355 355 354 357 359 357 359 358 361 361 360 354 353 352 352 353 353 356 358 357 357 356 355 357 352
327 332 329 330 336 333 331 336 331 329 333 338 333 335 335 335 336 338 339 339 340 344 346 353 354 352 358 357 361 355 354 357 356 357 360 358 351 351 355 354 356 358 356 356 354 347 351 352 358
325 328 330 333 334 334 336 334 333 329 333 342 337 337 334 335 338 340 342 341 343 343 343 349 354 356 358 356 354 360 355 356 353 358 355 355 351 353 355 351 350 358 358 355 358 351 353 352 354
329 331 330 332 331 332 330 331 335 335 341 339 337 335 334 336 338 340 341 340 342 343 344 348 350 359 357 364 353 364 355 357 354 355 353 352 354 353 355 355 355 355 351 356 353 352 356 357 352
331 325 329 330 331 331 333 326 328 336 339 337 335 335 335 337 338 338 341 340 342 343 347 348 350 357 362 364 361 363 365 358 354 354 357 354 357 357 351 353 361 360 358 354 356 356 350 352 350
328 324 318 327 330 334 333 322 330 338 337 334 336 335 335 337 335 340 342 339 343 342 347 350 350 352 356 360 361 361 363 362 357 353 357 356 357 358 358 356 354 356 365 362 357 357 352 352 347
322 311 313 321 331 332 331 324 331 337 337 335 335 335 335 336 337 341 341 339 342 343 348 348 351 350 353 365 359 363 363 354 352 357 354 357 361 363 360 359 359 362 363 352 358 358 356 351 350
312 314 313 313 326 328 328 327 330 334 336 335 336 336 335 334 337 340 339 341 343 344 348 353 351 360 361 366 368 356 359 353 350 360 357 361 362 365 363 364 361 361 363 358 356 354 354 350 352
320 317 316 317 327 327 326 326 328 331 336 335 333 335 334 333 339 338 341 340 342 344 346 351 354 363 360 358 359 355 349 354 361 361 363 362 366 366 361 359 361 363 359 357 360 357 350 353 355
318 315 316 320 324 325 323 325 329 330 333 335 334 335 334 336 335 337 339 337 339 342 347 353 357 361 361 362 361 356 360 361 355 366 365 366 367 367 364 366 359 364 362 359 357 356 349 351 348
315 314 315 315 320 321 317 322 327 330 331 334 337 337 337 337 335 338 342 340 338 340 345 351 358 362 364 355 364 364 367 366 359 363 364 366 369 368 366 369 364 356 355 350 353 354 358 349 349
311 315 316 316 315 314 320 312 318 320 327 329 334 336 336 336 337 340 342 339 339 339 345 349 354 361 362 368 362 363 360 347 354 360 366 363 367 366 369 369 357 355 357 352 347 355 355 354 348
313 316 315 315 314 317 314 311 312 318 320 326 329 333 336 338 337 338 340 339 343 341 342 346 352 359 363 365 370 363 362 361 358 361 365 370 370 369 370 370 368 365 359 355 348 353 355 358 344
318 315 317 318 314 309 313 310 306 311 321 329 331 332 334 337 339 341 342 342 343 344 344 344 350 359 364 363 365 366 366 364 364 363 362 362 362 364 364 369 367 369 362 359 359 355 352 355 356
315 314 308 306 307 307 313 309 312 315 326 333 330 332 334 337 340 339 341 341 344 343 343 346 350 356 362 363 362 362 364 366 365 368 356 363 359 360 367 368 367 366 366 361 365 361 358 358 355
315 314 306 302 302 306 314 308 315 323 329 335 335 334 334 335 337 339 343 345 346 347 345 346 353 355 359 361 362 365 365 360 358 363 356 359 359 364 367 369 370 368 369 366 366 360 359 356 355
312 310 315 308 310 308 311 316 322 324 329 332 333 333 332 334 336 338 340 345 346 347 346 352 354 360 360 359 362 363 363 362 359 365 362 359 365 357 368 367 367 369 368 367 365 354 351 360 361
315 317 309 311 304 302 309 309 307 314 323 328 330 332 333 334 336 338 340 344 346 346 350 353 354 354 357 356 358 358 359 361 361 364 370 369 371 369 368 366 367 367 370 367 365 358 357 356 358
313 311 312 313 310 304 302 308 321 321 325 327 329 332 334 334 334 336 339 344 347 346 347 350 353 352 353 353 354 356 356 358 361 359 364 367 368 369 369 369 366 367 368 367 364 362 361 358 360
318 314 315 308 308 311 308 308 321 325 326 326 330 333 335 337 336 337 339 342 343 346 347 346 348 350 351 351 356 355 358 361 356 358 359 364 363 370 370 369 367 367 367 367 363 361 357 355 356
Wind_Speed
8 9 4 1 2 3 5 5 14 17 14 16 15 17 17 14 12 13 19 18 21 19 16 14 12 13 13 12 11 9 9 11 12 13 12 13 14 15 16 15 15 16 17 17 16 17 16 15 14
8 9 0 0 2 3 5 16 13 16 18 16 15 19 18 16 18 22 16 20 21 18 16 15 12 12 12 13 11 10 9 11 12 12 12 14 14 15 15 16 14 15 15 16 15 16 15 14 13
10 11 3 5 4 0 5 10 17 18 15 14 10 15 9 17 17 17 20 22 20 17 17 15 13 12 12 12 10 10 10 10 11 13 13 14 15 15 15 15 15 14 13 14 15 15 15 13 10
4 3 4 5 10 7 9 12 17 18 11 17 18 14 10 16 20 21 19 20 19 21 18 15 13 11 11 11 10 9 9 10 11 14 13 13 13 14 15 14 14 15 13 13 13 12 14 12 8
4 5 4 3 10 18 13 14 14 14 13 12 14 18 18 14 22 19 17 20 19 19 17 15 12 11 10 9 9 10 9 11 12 14 13 12 12 13 12 12 12 13 12 13 11 13 12 11 8
4 4 3 4 12 18 2 12 10 8 15 20 22 21 15 21 18 16 16 24 17 20 18 14 12 11 10 10 10 9 10 11 13 16 16 13 11 10 13 10 11 11 13 11 12 10 10 9 6
9 4 2 9 16 15 11 8 8 5 11 15 20 20 13 20 18 15 15 15 18 19 18 14 13 11 10 10 11 10 10 11 15 16 15 14 13 12 11 10 11 11 10 10 9 7 6 7 5
10 8 5 5 13 15 7 7 15 9 10 10 17 9 18 21 18 15 13 19 12 12 18 10 11 10 8 9 13 13 12 13 14 14 13 13 13 13 12 9 8 11 9 9 7 5 4 5 5
2 4 4 13 14 13 11 14 9 9 12 9 9 22 22 22 18 16 11 10 13 15 16 17 15 12 10 11 10 12 14 16 17 13 12 10 4 5 7 9 8 7 8 7 6 3 4 5 8
7 5 5 5 11 16 19 9 15 11 12 22 17 21 22 21 17 18 12 9 12 11 17 12 16 14 14 11 9 9 11 9 8 8 4 6 4 3 3 7 7 6 7 6 5 4 5 7 3
10 7 9 13 19 6 13 24 9 9 6 18 22 24 21 19 16 17 15 12 14 18 13 13 9 11 14 9 7 6 5 7 6 10 6 4 4 3 2 2 1 1 7 4 5 3 2 2 4
7 21 6 7 20 10 7 11 8 5 9 4 22 23 20 20 19 17 16 8 13 15 13 20 12 5 8 5 6 7 4 6 7 9 9 6 3 3 2 2 4 5 4 4 5 2 1 3 5
2 8 12 7 5 14 15 16 12 11 8 7 19 21 21 18 12 10 13 13 14 15 11 14 12 6 10 5 2 3 4 4 5 8 5 3 5 5 4 4 3 3 4 3 3 6 5 4 5
9 5 17 5 12 6 12 13 7 19 18 15 22 21 20 18 18 14 5 15 15 13 15 14 11 7 8 7 8 3 6 3 4 6 5 7 3 4 5 5 5 5 6 6 2 4 3 4 5
10 13 14 9 15 9 12 8 12 11 19 5 20 19 19 18 19 16 17 14 14 12 17 13 13 12 6 6 7 3 2 9 7 1 7 6 4 5 4 4 4 3 7 6 6 4 7 6 4
16 13 7 11 9 12 9 12 12 17 16 11 13 16 18 19 16 13 10 15 14 13 15 14 12 14 9 7 5 4 4 5 4 4 5 5 7 6 6 4 4 4 2 2 2 2 2 2 2
8 8 16 11 12 14 10 16 14 19 19 17 14 14 15 19 18 16 12 13 15 11 14 11 13 14 10 7 7 4 6 4 4 1 5 7 7 7 4 3 4 5 1 2 3 2 2 3 3
10 9 7 17 12 12 21 18 15 14 20 17 16 13 12 16 18 16 14 12 14 13 11 5 7 8 10 5 4 5 5 7 6 6 7 8 5 7 5 4 4 4 3 2 2 4 5 2 2
16 24 33 32 12 14 9 15 15 12 19 17 15 15 15 19 17 16 15 15 14 13 10 11 6 9 7 5 3 2 5 4 5 5 9 7 4 3 4 4 5 4 3 4 2 4 4 1 2
7 5 10 9 9 5 8 17 13 10 14 15 17 19 15 16 15 15 16 14 13 13 12 9 11 10 6 4 3 1 4 3 5 4 6 5 4 5 1 2 2 3 2 4 4 3 2 1 1
2 2 6 10 16 28 16 9 11 10 7 13 21 16 17 17 18 20 18 17 16 12 13 10 8 10 6 4 4 3 2 1 3 6 5 6 6 5 5 3 2 4 2 2 5 4 5 4 2
7 2 5 3 12 4 13 7 14 18 9 12 19 21 20 20 18 20 18 18 16 15 11 12 9 9 6 4 2 6 3 2 3 2 3 5 5 5 5 4 3 3 2 5 5 5 5 5 5
6 0 9 6 5 11 7 9 10 17 13 14 15 19 24 23 22 19 20 19 18 19 15 13 12 8 8 6 3 4 4 2 3 6 7 5 4 4 5 7 6 4 5 6 6 6 4 3 4
5 8 7 13 9 8 18 13 5 11 22 17 18 17 17 24 21 23 21 20 16 16 14 14 14 11 8 9 6 5 2 3 0 4 1 5 5 4 6 5 4 4 3 4 4 4 5 2 1
7 3 5 3 4 1 27 15 13 29 24 20 19 20 18 21 22 19 21 20 16 17 14 16 17 13 11 9 9 8 6 4 3 2 4 0 6 5 5 5 5 5 5 6 5 5 5 4 3
12 12 8 14 9 9 14 7 11 28 32 20 20 20 20 18 17 19 22 21 19 16 23 16 17 15 14 11 9 8 8 5 5 5 6 4 3 4 7 6 4 4 5 4 4 0 4 6 6
15 11 14 11 9 5 11 9 9 16 21 20 19 19 18 17 18 17 15 23 21 18 13 15 14 13 12 13 10 9 7 8 7 7 7 4 4 4 8 6 4 5 5 4 4 4 5 7 7
15 15 11 5 3 3 19 9 7 26 12 19 18 17 16 15 17 16 15 13 12 17 16 16 16 15 13 14 12 10 10 10 9 7 4 4 3 4 3 2 4 5 5 6 6 5 6 6 6
7 9 11 3 2 4 5 1 18 23 9 17 16 16 16 15 16 15 14 13 12 12 14 18 17 16 13 12 12 12 11 11 10 8 6 5 4 4 4 4 4 5 6 7 6 6 8 8 6
10 13 8 4 7 1 9 7 7 6 11 6 17 16 18 14 15 16 15 15 13 11 12 13 14 16 16 12 9 10 11 8 10 10 9 8 7 6 5 4 5 6 6 6 7 8 9 8 8
Wind_Direction
200 210 190 232 257 167 225 158 110 95 95 84 68 66 73 42 44 102 151 128 121 124 127 126 116 116 109 108 108 106 98 89 88 82 82 84 93 95 97 98 104 101 101 95 92 88 88 88 89
213 223 74 19 297 147 67 102 107 100 94 90 94 79 62 58 97 130 121 127 127 131 132 129 122 114 113 106 108 99 96 92 95 89 86 89 93 97 101 102 105 98 97 95 92 92 93 86 82
243 238 230 81 279 59 78 83 104 104 123 92 83 58 49 109 111 113 127 131 129 139 113 122 127 126 121 115 108 106 99 102 103 97 92 91 96 99 102 103 108 101 97 94 89 93 96 89 81
243 298 261 128 198 267 131 125 123 118 110 100 115 88 93 117 112 119 140 133 134 115 113 124 128 130 128 123 120 115 101 99 105 102 92 91 94 94 107 104 105 105 102 97 100 96 97 93 75
198 250 128 280 149 99 70 100 136 113 109 86 88 104 119 105 117 129 134 115 107 112 122 126 129 130 127 129 131 124 112 101 101 100 96 101 98 106 104 104 107 108 107 101 93 97 99 93 78
244 258 114 127 109 89 66 98 84 104 98 98 101 118 112 117 130 139 144 121 146 129 118 131 135 135 137 136 135 135 125 114 122 117 116 110 105 95 101 103 100 111 115 110 107 100 95 92 91
227 10 317 143 124 125 118 111 91 107 114 114 123 119 129 133 137 151 135 128 106 127 127 135 139 145 141 133 138 136 132 118 126 130 123 117 114 110 103 108 110 114 109 106 105 103 102 110 111
245 144 231 202 125 115 137 133 131 134 118 103 129 133 150 140 147 154 138 109 122 141 122 133 135 135 142 139 135 134 134 131 131 127 121 120 114 108 106 103 111 115 117 115 111 105 124 149 170
39 16 268 108 110 138 115 121 120 185 127 117 86 140 139 144 151 132 107 121 154 128 132 132 126 124 127 126 129 128 130 133 131 133 127 108 71 103 110 112 121 125 130 128 128 99 126 149 177
59 298 332 76 97 143 155 148 133 148 129 100 111 125 137 151 151 124 143 161 141 125 116 108 117 126 127 126 146 139 145 135 138 135 175 112 109 119 98 117 116 145 148 148 147 137 144 184 168
174 222 190 164 136 146 140 76 55 147 58 119 143 143 139 144 154 142 156 173 132 102 114 119 113 136 112 134 162 153 155 150 143 144 171 128 131 126 102 106 104 175 185 186 175 191 163 211 260
177 211 133 84 134 112 98 109 102 94 186 224 150 138 150 162 172 151 162 139 136 128 117 120 109 100 123 153 193 120 159 156 159 158 152 150 141 144 151 210 196 191 190 235 142 173 239 131 236
158 124 94 141 15 115 137 126 133 148 174 240 157 148 161 168 163 137 131 158 130 114 129 104 119 154 132 150 78 62 107 144 171 142 112 35 163 170 173 213 237 300 324 170 191 178 173 198 234
171 207 119 190 117 102 109 121 131 152 172 219 144 156 163 165 158 171 194 150 141 143 125 117 128 121 112 97 133 121 120 118 65 79 136 171 163 166 178 215 224 142 250 242 136 284 132 194 216
191 152 148 168 140 120 113 128 95 121 129 77 149 160 158 178 167 176 173 148 146 158 123 143 143 129 124 127 88 110 310 132 118 17 119 145 184 176 187 241 287 182 202 175 174 159 127 274 329
95 353 343 151 159 138 187 128 134 127 133 143 159 155 168 162 149 190 192 152 160 130 129 166 147 138 155 138 143 142 132 58 136 191 142 169 204 201 202 213 262 260 218 160 77 64 87 31 86
76 155 284 288 174 163 198 127 142 145 144 160 161 176 175 154 169 185 185 158 137 134 136 185 149 138 130 146 136 143 125 133 14 18 85 237 199 203 189 223 211 244 265 176 162 133 150 230 237
199 151 166 269 168 197 172 122 146 159 150 152 182 164 176 167 169 182 173 139 129 132 139 166 124 113 121 117 155 162 153 143 182 156 166 205 199 178 178 214 218 219 225 232 145 170 187 131 328
215 190 178 214 165 184 65 142 148 165 144 158 165 180 188 177 171 185 144 172 133 143 178 136 162 120 130 151 217 147 121 189 197 147 156 174 176 139 219 200 188 207 223 249 214 213 150 150 251
208 206 173 123 149 35 331 127 139 166 156 163 164 170 180 178 182 169 158 153 164 175 169 154 135 136 158 192 200 156 109 107 170 158 150 144 167 174 146 327 193 238 183 251 243 203 124 122 297
96 354 174 183 120 111 243 134 138 160 179 159 159 180 179 189 194 162 165 179 167 196 165 171 152 149 186 170 121 87 21 140 167 172 153 171 180 177 182 203 23 113 129 23 324 264 202 205 145
177 20 290 164 173 141 183 36 17 332 244 186 165 180 180 194 193 169 173 194 176 172 186 159 165 157 171 192 172 161 145 87 241 124 143 159 183 151 150 159 176 253 134 145 233 253 223 208 157
48 128 289 257 237 139 225 89 291 330 294 192 203 188 176 179 188 184 181 191 184 170 178 164 161 183 168 185 192 176 230 234 240 139 161 142 159 200 192 182 179 205 162 177 209 261 250 238 132
328 253 272 324 278 229 112 99 248 236 234 206 192 184 193 172 187 176 187 184 171 187 179 171 165 178 175 171 189 252 249 240 152 59 181 183 183 186 201 171 171 165 142 182 222 189 254 240 181
224 289 339 325 233 321 127 101 269 224 233 199 186 179 190 177 175 184 176 182 191 180 195 175 166 175 179 185 176 205 225 239 293 251 247 227 181 189 199 178 183 172 197 198 201 210 216 152 232
284 167 180 268 216 119 120 145 185 203 214 183 176 179 180 181 180 185 179 175 185 189 190 177 162 169 174 182 197 191 208 220 224 228 259 291 38 144 165 190 188 181 192 208 154 295 202 199 216
269 241 300 300 4 45 96 5 10 340 141 153 165 172 173 175 169 185 192 167 181 187 189 151 155 161 175 187 192 203 205 227 228 224 211 243 242 264 178 166 187 200 188 209 176 202 236 250 209
280 301 300 335 35 353 96 90 150 296 150 148 156 166 167 171 167 173 182 188 177 172 172 160 170 178 189 190 191 206 211 211 236 254 256 259 339 356 1 189 211 213 208 199 216 231 222 262 278
206 234 244 233 171 285 75 117 191 205 132 153 157 163 161 170 169 165 174 170 170 189 177 169 174 176 189 202 215 199 207 210 212 232 226 239 249 250 258 255 255 258 230 211 212 234 275 276 259
242 272 293 358 279 63 73 0 42 122 158 140 157 156 156 175 174 165 166 158 166 181 178 188 183 179 188 194 199 214 204 209 209 206 227 205 213 218 223 231 257 260 268 273 239 226 242 297 271